This is the latest recevied weather packets stored in our database for station/object K5OLV. If no packets are shown the sender has not sent any weather packets the latest 10 day(s).
| Time | Temp. | Humidity | Pressure | Rain* | Wind** | Luminosity | Snow |
|---|---|---|---|---|---|---|---|
| 1787861713 | 28.33° C | 74% | 1013.2 hPa | 0 mm | - | 616 W/m² | - |
| 1787861411 | 27.78° C | 76% | 1013.1 hPa | 0 mm | - | 594 W/m² | - |
| 1787861106 | 27.22° C | 78% | 1013.2 hPa | 0 mm | - | 589 W/m² | - |
| 1787860805 | 28.89° C | 74% | 1013.2 hPa | 0 mm | - | 167 W/m² | - |
| 1787860500 | 28.33° C | 77% | 1013.4 hPa | 0 mm | - | 683 W/m² | - |
| 1787860194 | 27.78° C | 77% | 1013.4 hPa | 0 mm | - | 547 W/m² | - |
| 1787859890 | 28.33° C | 74% | 1013.3 hPa | 0 mm | - | 192 W/m² | - |
| 1787859585 | 27.78° C | 75% | 1013.4 hPa | 0 mm | - | 674 W/m² | - |
| 1787859279 | 27.22° C | 76% | 1013.6 hPa | 0 mm | - | 232 W/m² | - |
| 1787858976 | 27.22° C | 78% | 1013.4 hPa | 0 mm | - | 182 W/m² | - |
| 1787858671 | 27.78° C | 76% | 1013.5 hPa | 0 mm | - | 213 W/m² | - |
| 1787858366 | 27.78° C | 75% | 1014 hPa | 0 mm | - | 189 W/m² | - |
| 1787858062 | 28.89° C | 74% | 1013.5 hPa | 0 mm | - | 152 W/m² | - |
| 1787857757 | 28.89° C | 72% | 1013.6 hPa | 0 mm | - | 754 W/m² | - |
| 1787857453 | 28.89° C | 72% | 1013.5 hPa | 0 mm | - | 758 W/m² | - |
| 1787857150 | 28.89° C | 72% | 1013.9 hPa | 0 mm | - | 759 W/m² | - |
| 1787856846 | 28.89° C | 74% | 1013.9 hPa | 0 mm | - | 727 W/m² | - |
| 1787856545 | 28.33° C | 74% | 1013.6 hPa | 0 mm | - | 327 W/m² | - |
| 1787856241 | 28.89° C | 73% | 1013.9 hPa | 0 mm | - | 329 W/m² | - |
| 1787855936 | 28.33° C | 72% | 1014.1 hPa | 0 mm | - | 255 W/m² | - |
| 1787855635 | 28.33° C | 72% | 1014 hPa | 0 mm | - | 222 W/m² | - |
| 1787855331 | 28.89° C | 72% | 1013.9 hPa | 0 mm | - | 259 W/m² | - |
| 1787855026 | 29.44° C | 72% | 1013.9 hPa | 0 mm | - | 587 W/m² | - |
| 1787854721 | 28.89° C | 71% | 1014.1 hPa | 0 mm | - | 748 W/m² | - |
| 1787854421 | 28.89° C | 72% | 1014 hPa | 0 mm | - | 792 W/m² | - |
* Rain latest hour (hover to see other rain measurements)
** Current wind speed in m/s (hover to see current wind gust speed)